Regional Weather Roundup
Issued by NWS

Home | Current Version | Previous Version | Graphics & Text | Print | Product List | Glossary On
Versions: 1 2 3 4 5 6 7 8 9 10 11 12 13 14 15 16 17 18 19 20 21 22 23 24 25 26 27 28 29 30 31 32 33 34 35 36 37 38 39 40 41 42 43 44 45 46 47 48 49 50
072
ASUS44 KLIX 021405
RWRLA
LOUISIANA WEATHER ROUNDUP
NATIONAL WEATHER SERVICE NEW ORLEANS LA
800 AM CST MON MAR 02 2015

NOTE: "FAIR" INDICATES FEW OR NO CLOUDS BELOW 12,000 FEET WITH NO
      SIGNIFICANT WEATHER AND/OR OBSTRUCTIONS TO VISIBILITY.
      SKY/WX - SKY CONDITION AND SIGNIFICANT WEATHER.
      TMP - AIR TEMPERATURE.    DP   - DEWPOINT TEMPERATURE.
      RH  - RELATIVE HUMIDITY.  PRES - PRESSURE.
      HX  - HEAT INDEX.         WCI  - WIND CHILL INDEX.

*  THESE STATIONS ARE NOT NWS OR FAA STATIONS AND ARE NOT UNDER
   NWS QUALITY CONTROL.

LAZ040-048-061>063-065-066-069-021500-
SOUTHEAST LOUISIANA

CITY           SKY/WX    TMP DP  RH WIND       PRES   REMARKS
N.O. AUDUBON     N/A     61  61 100 MISG        N/A
N.O. INTL ARPT CLOUDY    64  61  90 SE8       30.26S FOG
N.O. LAKEFRONT CLOUDY    63  60  90 SE6       30.27S FOG
SLIDELL        CLOUDY    64  63  96 CALM      30.26S
BATON ROUGE    CLOUDY    61  59  93 NE3       30.26R
BOOTHVILLE     CLOUDY    68  68 100 SE9       30.28R FOG
BELLE CHASSE   CLOUDY    65  62  90 VRB6      30.26S FOG
BOGALUSA*      RAIN      62  59  90 CALM      30.29S
GALLIANO*      FOG       54  53  97 E3        30.27S VSB 1/4
NEW ROADS*     RAIN      58  58  99 W6        30.27R
GONZALES*      CLOUDY    61  61 100 MISG      30.26S FOG
HAMMOND*       CLOUDY    63  59  88 SE7       30.28S
HOUMA*         FOG       63  63 100 E3        30.27R VSB 1
PORT FOURCHON* FOG       63  63 100 E7        30.30S VSB 0

$$

LAZ041-044-053-054-021500-
SOUTHWEST LOUISIANA

CITY           SKY/WX    TMP DP  RH WIND       PRES   REMARKS
LAKE CHARLES   RAIN      59  58  96 N7        30.25R FOG
LAFAYETTE      FOG       62  62 100 NE5       30.25R VSB 1/4
PATTERSON      CLOUDY    63  61  94 E3        30.27R VSB 3/4
SALT POINT       N/A     63  63 100 VRB3      30.24R
NEW IBERIA     FOG       63  62  97 SE6       30.26R VSB 1/4
CHENAULT AIRPK CLOUDY    57  57 100 CALM      30.26  FOG

$$

LAZ027-028-021500-
CENTRAL LOUISIANA

CITY           SKY/WX    TMP DP  RH WIND       PRES   REMARKS
FORT POLK      FOG       47  47  98 NE7       30.28S VSB 1
ALEXANDRIA INT CLOUDY    47  46  97 N8        30.29R
ALEXANDRIA     LGT RAIN  47  46  97 CALM      30.31R

$$

LAZ001-002-021500-
NORTHWEST LOUISIANA

CITY           SKY/WX    TMP DP  RH WIND       PRES   REMARKS
SHREVEPORT     DRZL/FOG  42  41  96 NE14      30.34R VSB 1
BARKSDALE AFB  CLOUDY    41  41 100 CALM      30.36R FOG
DTN SHREVEPORT CLOUDY    41  39  93 NE7       30.36R FOG

$$

LAZ014-016-021500-
NORTHEAST LOUISIANA

CITY           SKY/WX    TMP DP  RH WIND       PRES   REMARKS
MONROE         CLOUDY    41  40  96 NE14      30.37R FOG
TALLULAH       CLOUDY    43  41  93 N13       30.35S FOG

$$




USA.gov is the U.S. government's official web portal to all federal, state and local government web resources and services.